Location: *
(48.8489°N, 2.3218°E)
Time: 02:33:41
(UTC+00:00)

Cosmos 2150 Rocket - Pass Details

Date: 23 August 2019
Orbit: 748 x 809 km, 74.0° (Epoch: 17 October)

Event Time Altitude Azimuth Distance (km) Brightness Sun altitude
Exits shadow 21:58:19 32° 226° (SW) 1,265 5.0 -24.7°
Maximum altitude 22:00:36 64° 296° (WNW) 839 4.3 -24.9°
Drops below altitude 10° 22:05:48 10° 18° (NNE) 2,309 7.0 -25.3°
Sets 22:08:14 0° 22° (NNE) 3,248 7.8 -25.5°
